GFSWCAN_sfc_rhum_210.txt.gz
RH
80 80 79 78 76 76 80 85 90 92 91 82 82 82 82 80 79 86 84 79 90 100 95 99 97 84 94 77 97 100 97 98 99 100 93 92 83 69 76 66 72 74 87 88 87 92 81 29 25 31 32 32 31 29
80 81 80 80 80 79 78 79 82 89 92 92 82 83 84 83 80 83 99 91 91 96 100 99 96 93 66 50 80 96 89 82 94 97 88 83 84 72 64 81 49 76 58 70 70 64 43 34 34 31 27 34 35 32
79 81 81 81 81 82 83 82 80 79 89 92 93 86 82 83 86 88 98 97 97 100 98 97 99 96 85 67 55 93 82 85 84 76 90 83 81 55 78 72 66 58 47 59 53 38 33 35 34 35 31 33 31 32
78 80 81 81 81 80 81 84 85 81 80 91 95 91 85 83 83 86 97 98 96 98 97 97 96 100 92 76 70 64 81 79 80 77 90 90 87 87 84 74 75 57 48 42 37 31 32 32 35 34 33 30 30 32
80 82 81 81 81 80 80 82 85 85 77 79 89 96 90 90 89 94 98 96 92 90 92 95 73 85 94 89 84 84 81 76 70 77 85 84 62 60 49 39 46 39 41 47 50 34 28 32 32 30 33 31 29 31
80 81 81 83 83 82 81 81 83 82 81 71 80 88 87 87 86 92 100 94 85 89 83 92 94 90 78 68 62 59 53 52 51 58 60 56 56 55 56 35 31 32 32 27 31 27 23 31 29 27 29 30 32 36
81 80 81 83 84 84 84 81 81 80 74 73 71 73 76 78 81 96 95 92 80 76 93 92 92 77 59 47 49 51 58 59 50 48 50 41 43 44 42 24 25 32 30 34 33 37 43 36 37 34 38 39 54 49
79 79 82 86 85 85 85 84 80 80 74 74 67 71 69 72 67 81 83 75 74 66 68 92 94 88 52 64 74 58 69 60 64 53 46 41 40 43 39 25 24 26 29 35 35 30 33 39 44 46 44 49 54 50
75 75 77 82 84 85 85 85 82 78 76 72 65 59 58 78 94 63 75 71 76 77 87 86 82 93 57 69 73 69 61 84 60 66 50 39 47 46 30 31 26 32 34 34 33 35 38 46 45 49 54 53 56 53
79 79 80 80 80 81 84 84 83 77 74 67 55 86 100 63 76 64 72 95 99 75 66 83 58 86 60 59 84 71 70 58 64 60 42 55 35 40 44 39 37 40 38 41 53 59 58 59 61 60 56 54 56 53
76 77 79 78 78 81 82 83 82 74 65 64 90 84 56 63 48 70 96 82 68 75 59 60 42 56 59 62 75 65 72 64 66 57 56 57 51 55 70 66 44 44 42 45 46 48 50 57 60 62 60 58 58 58
77 77 77 77 81 79 78 80 80 62 80 82 81 63 49 62 75 77 83 69 61 72 69 67 79 77 77 53 68 67 64 64 62 58 75 63 62 79 82 86 68 54 53 55 55 59 61 60 60 61 62 64 65 69
79 78 77 78 78 79 80 81 80 76 71 64 60 70 65 71 80 60 83 73 82 76 75 77 91 76 70 61 78 78 78 78 67 85 65 53 71 86 86 77 74 66 66 63 60 57 59 61 60 68 70 71 80 74
76 76 78 77 78 79 80 78 78 67 57 73 70 75 80 85 78 76 62 62 84 65 69 70 84 74 70 75 70 82 72 70 76 80 60 74 88 95 89 86 79 75 74 73 71 66 66 68 76 86 95 92 92 86
72 75 77 74 76 78 80 78 75 60 71 86 64 81 82 84 85 86 85 82 72 68 77 89 80 70 80 89 67 70 86 74 60 64 69 79 95 99 93 86 78 78 90 86 82 95 94 95 93 95 95 94 84 92
71 75 73 71 71 75 76 68 67 66 81 71 71 82 84 78 97 93 86 94 75 73 77 75 81 79 80 68 71 69 60 67 66 72 76 86 79 75 76 76 84 86 87 95 96 96 99 96 94 95 97 91 88 88
69 71 69 69 70 74 78 70 68 92 68 63 92 86 85 81 93 92 75 82 76 74 88 72 79 65 73 70 63 58 77 74 77 86 73 68 72 80 90 88 94 94 97 99 100 98 97 92 91 90 92 90 90 90
62 60 68 72 71 74 79 72 83 72 66 74 79 92 84 87 90 91 85 90 80 75 74 75 67 70 78 64 67 76 87 90 78 79 78 76 75 85 79 78 92 88 91 99 95 94 93 91 81 78 83 87 84 85
67 68 73 74 78 83 89 81 78 83 81 79 80 80 78 88 84 78 84 90 81 73 82 74 84 72 72 69 83 91 91 86 92 88 91 99 96 96 100 94 92 95 92 91 92 85 86 92 78 76 78 78 82 84
70 70 68 76 74 89 93 86 79 78 77 78 79 84 78 84 87 99 97 90 81 80 83 82 75 74 75 72 77 85 85 86 88 93 91 91 96 98 97 88 81 90 89 90 88 85 82 81 81 80 80 82 86 87
60 57 66 70 68 70 86 84 79 74 71 80 79 85 85 85 87 93 88 79 84 76 68 66 92 87 88 91 81 73 79 76 82 76 82 91 90 83 90 82 84 86 86 84 84 92 91 88 87 84 92 93 92 90
63 68 68 70 82 78 82 63 74 74 81 75 76 76 87 96 94 90 73 81 76 90 86 88 87 85 82 87 90 81 88 71 74 78 83 84 94 86 84 87 88 91 89 87 78 84 87 80 84 89 94 93 90 90
71 69 71 69 79 80 77 62 77 67 89 70 76 86 85 94 82 74 90 84 87 83 78 77 80 78 83 86 86 85 92 77 79 81 84 79 80 82 86 86 85 89 89 89 81 84 83 87 87 97 94 93 93 95
77 78 82 77 72 87 75 76 64 70 65 72 75 75 68 82 79 85 90 89 86 67 72 80 75 82 80 90 88 89 91 92 87 82 77 78 86 88 82 89 84 84 80 80 79 86 88 95 94 87 93 94 92 97
80 91 86 88 76 79 84 83 82 71 83 71 78 82 88 86 92 90 87 85 87 88 87 82 78 82 86 87 87 87 92 91 92 90 92 81 83 83 89 87 86 85 78 87 89 90 92 91 91 92 90 92 91 91
89 87 82 77 81 79 79 81 80 82 75 85 86 75 74 82 82 88 87 91 88 88 92 91 90 86 86 87 86 86 89 90 89 88 90 90 92 90 87 87 89 90 79 86 88 86 84 84 87 81 90 88 88 92
92 89 71 46 52 55 76 76 67 77 86 83 78 83 81 83 84 83 80 81 80 87 83 83 82 82 86 87 87 88 89 89 90 88 88 87 86 82 88 90 89 88 82 84 89 90 91 87 86 85 86 85 87 92
80 72 85 75 75 66 86 81 82 79 75 61 65 83 84 86 84 83 81 83 85 78 78 80 79 80 83 86 89 90 90 91 92 90 88 87 88 90 91 90 90 93 90 88 89 89 89 89 88 87 85 84 84 84
79 74 67 93 88 81 80 79 77 70 60 62 77 75 82 77 83 80 78 79 81 81 83 84 85 78 74 72 85 88 91 92 92 92 92 92 93 93 90 90 88 84 85 83 78 84 85 88 88 88 86 87 86 87
80 74 79 91 90 80 86 83 85 88 59 65 65 68 68 82 85 80 80 80 82 88 86 83 83 81 84 84 83 83 88 87 89 91 91 91 91 90 91 90 88 87 87 86 85 81 80 86 84 87 88 86 86 85
78 81 82 80 83 89 92 89 88 87 89 85 90 87 80 84 84 80 76 79 81 86 83 81 81 82 81 82 84 83 84 87 88 85 87 88 86 87 87 87 88 88 88 86 86 85 86 87 85 85 85 85 84 87
83 81 81 77 82 88 84 85 85 84 91 88 88 88 89 87 86 82 82 85 84 82 90 86 83 81 83 84 88 88 93 91 88 88 88 89 86 84 85 84 88 89 88 87 86 86 86 87 88 86 87 85 85 87
93 91 91 85 81 74 86 83 78 78 87 88 89 91 87 87 84 83 83 84 79 78 82 84 84 84 86 89 86 88 94 86 88 95 95 95 97 95 90 87 88 88 87 87 86 86 87 85 87 86 86 87 86 84

GFSWCAN_sfc_rhum_216.txt.gz
RH
79 79 80 82 82 82 82 82 83 81 76 84 89 81 84 86 87 83 87 65 81 94 85 87 86 93 98 100 99 100 86 99 100 100 100 100 100 76 74 79 88 90 96 97 99 95 87 26 29 46 45 35 38 40
80 82 82 83 83 83 83 82 83 82 75 78 87 86 81 80 78 77 85 85 84 96 100 75 66 62 62 67 92 95 100 82 99 100 100 100 100 97 64 89 59 78 65 76 72 74 54 29 36 40 36 36 36 37
77 80 82 82 81 81 82 83 84 83 78 75 85 84 82 80 78 75 68 81 96 100 91 88 96 71 78 84 79 99 80 90 88 85 100 100 100 80 92 63 65 52 44 66 63 49 34 32 32 30 28 31 32 32
76 78 78 80 80 81 81 82 84 84 81 74 87 83 84 80 78 76 88 80 88 96 99 95 76 96 80 86 91 94 86 78 87 90 100 100 98 79 85 66 64 54 52 62 57 45 33 31 34 33 29 28 30 29
79 80 80 80 81 82 82 83 84 84 82 75 82 90 83 80 76 85 92 96 90 100 99 94 81 76 89 96 96 94 96 97 95 98 100 100 91 74 66 68 68 48 59 69 76 45 40 39 34 32 34 30 27 24
79 79 78 80 82 82 83 83 84 84 82 75 75 88 89 86 89 98 100 97 92 89 99 94 79 97 99 99 99 95 93 97 98 99 99 94 77 88 86 72 48 43 46 47 51 38 40 45 40 28 31 30 24 24
77 76 78 80 82 82 83 83 83 83 80 76 85 85 88 89 97 100 100 97 93 97 100 94 94 88 97 99 99 99 99 100 100 99 91 92 83 77 81 73 47 44 42 43 41 43 50 44 45 34 33 26 32 21
77 76 77 80 80 80 82 83 83 82 80 69 78 81 85 84 89 97 97 85 91 97 92 95 88 91 78 96 98 98 99 87 89 92 94 84 81 73 73 40 45 39 40 37 35 30 41 39 34 31 25 23 26 27
75 77 79 80 80 79 81 83 82 81 80 70 68 71 68 68 85 83 76 75 86 91 95 94 92 94 68 90 90 82 70 94 80 96 77 56 57 79 49 40 36 39 32 33 28 27 29 33 29 24 23 27 38 38
72 76 79 79 79 79 80 82 82 81 74 71 64 81 100 52 68 66 74 98 99 84 76 82 54 86 87 67 90 85 86 93 93 74 44 60 37 26 30 32 34 31 27 26 39 43 37 36 35 35 33 36 39 37
67 70 70 72 75 74 74 78 78 79 61 58 84 72 44 64 53 70 99 85 65 74 65 75 58 67 50 76 81 77 84 65 82 63 64 52 50 31 21 30 29 30 27 25 29 30 28 38 42 43 43 48 47 46
66 69 70 68 69 71 70 73 75 64 55 67 71 63 50 57 81 82 73 54 45 52 70 71 75 62 67 58 68 55 61 82 82 48 62 65 61 43 35 46 35 27 26 24 24 34 40 41 44 50 52 54 63 79
66 66 71 68 66 69 69 73 75 77 70 57 79 60 68 69 82 74 74 50 67 63 73 70 91 73 64 57 71 69 74 77 57 82 59 77 62 66 54 43 40 35 37 40 44 48 53 58 62 69 77 80 76 76
66 66 71 69 67 68 70 71 75 72 62 62 59 70 77 76 62 73 86 63 50 52 65 62 74 66 63 64 65 67 56 58 70 66 59 85 80 74 58 49 52 58 67 63 63 63 77 80 83 90 95 91 89 75
65 69 72 71 66 68 70 73 76 61 59 71 60 73 68 66 74 75 73 46 45 50 70 83 68 57 64 76 53 58 73 61 48 56 86 88 84 83 77 75 85 90 92 92 92 93 92 88 89 92 88 84 84 91
67 70 64 68 68 69 72 65 53 49 70 57 67 78 73 82 92 94 77 78 61 58 67 70 63 64 60 60 56 59 48 51 59 85 89 81 82 77 78 83 88 87 86 90 94 90 92 88 84 88 93 91 89 89
70 68 67 65 69 71 67 60 56 81 55 54 80 76 98 74 85 80 70 70 64 73 82 62 69 57 55 54 45 60 80 83 90 92 84 78 82 82 83 89 94 90 91 92 91 89 90 84 93 91 86 94 92 87
74 54 64 64 69 60 66 54 70 56 53 66 92 88 86 86 83 96 75 80 76 70 65 68 56 51 64 46 70 84 88 85 79 81 81 79 81 83 78 82 83 82 94 90 83 87 87 87 82 81 86 88 87 89
70 64 66 65 69 82 80 68 68 65 63 65 74 70 72 82 79 87 84 81 75 66 69 56 60 57 71 78 86 86 88 86 93 95 96 96 90 92 89 88 89 94 94 91 84 82 82 83 76 80 80 78 86 88
74 72 64 64 65 82 90 72 64 62 68 63 64 70 70 88 81 99 91 81 69 68 72 68 88 94 96 96 94 90 96 89 89 94 97 98 98 98 95 86 85 90 90 90 87 87 89 79 75 78 76 82 82 92
60 57 58 53 54 57 60 62 64 57 57 61 60 57 73 62 74 85 80 70 77 84 92 90 96 89 87 91 92 86 88 84 87 80 87 97 94 90 91 86 87 81 86 91 92 90 85 86 82 78 86 90 93 92
56 65 58 49 72 85 74 44 50 49 55 54 50 50 63 84 82 76 73 86 91 91 89 92 87 83 76 82 84 84 88 86 77 86 83 88 92 92 89 92 86 90 89 91 90 91 93 90 86 85 86 95 86 93
67 58 56 50 66 64 61 43 54 46 61 57 53 52 59 66 66 58 93 86 92 92 82 78 75 73 87 87 81 82 84 84 97 96 91 88 86 87 88 89 86 92 94 94 91 91 94 91 92 93 85 85 92 95
72 65 77 68 61 71 56 64 47 50 57 55 65 68 71 71 64 87 89 90 87 72 78 84 72 88 90 87 86 84 84 81 88 96 91 89 92 93 88 86 86 85 85 91 91 95 94 95 88 83 87 87 94 96
85 81 83 71 65 61 59 58 57 47 59 50 57 72 81 60 79 75 83 87 83 87 83 78 89 85 84 84 79 78 85 89 90 94 95 99 95 97 95 97 97 99 97 96 97 96 97 95 94 91 88 93 94 94
73 73 75 61 66 57 56 54 58 60 52 61 64 58 53 65 76 92 82 87 89 87 89 88 90 88 84 81 82 81 86 86 93 89 92 90 94 96 93 93 94 94 94 94 92 95 94 90 87 82 83 81 84 91
75 73 56 42 45 44 59 56 45 52 53 54 66 62 62 72 90 86 72 72 80 82 75 78 83 82 84 83 79 83 84 85 90 91 92 91 92 93 95 95 95 95 91 93 94 93 91 91 88 85 89 89 84 82
64 58 81 69 60 44 64 58 58 57 58 45 51 62 67 78 89 78 75 73 73 65 65 65 66 71 77 83 79 83 84 89 93 93 92 92 92 94 94 94 93 94 94 94 92 92 93 94 93 89 86 89 94 86
71 62 67 86 65 59 60 58 58 54 48 51 65 79 86 72 73 81 74 71 68 73 76 79 81 80 79 77 80 80 86 88 85 90 90 94 94 95 94 93 93 94 94 92 90 90 91 93 93 92 90 90 89 86
73 55 66 68 74 64 73 76 89 75 49 56 51 43 45 73 78 69 70 74 82 88 82 80 80 79 80 83 80 85 82 84 88 90 89 91 94 94 94 94 94 94 94 94 93 93 92 92 92 92 90 89 87 85
57 62 63 60 66 87 83 78 77 72 69 65 72 69 78 82 75 69 66 73 75 79 78 80 78 76 77 79 80 80 91 86 78 78 78 81 82 93 88 89 93 92 93 93 93 93 91 90 91 91 90 87 81 80
71 63 72 67 80 77 74 75 73 71 74 72 77 69 72 75 75 86 74 78 79 82 90 74 77 90 77 78 77 78 88 77 81 82 84 83 86 85 82 81 81 79 79 80 80 80 79 81 88 91 92 91 93 94
72 70 65 72 76 72 73 70 58 62 68 67 69 70 69 74 72 92 72 73 81 81 76 74 80 79 77 74 73 77 85 75 77 81 88 85 87 86 86 84 90 87 80 81 80 80 78 76 77 76 76 78 82 83

GFSWCAN_sfc_rhum_219.txt.gz
RH
76 76 76 79 80 80 80 81 81 82 83 83 78 76 86 88 87 93 97 91 97 100 98 90 91 92 97 100 98 98 92 92 97 98 99 99 99 99 100 86 91 90 96 98 99 99 94 44 35 46 46 43 52 42
76 76 78 80 80 80 81 82 81 82 83 84 78 78 84 87 88 89 98 96 95 100 100 91 83 80 78 77 96 99 100 98 99 98 99 100 99 100 99 99 74 94 80 87 83 74 65 33 42 48 40 46 50 49
75 75 76 78 80 81 82 82 82 82 84 84 79 81 84 82 81 83 94 98 97 100 100 98 99 86 82 85 82 97 98 91 99 92 99 95 99 99 99 99 97 80 62 80 70 58 42 51 46 41 42 43 46 44
76 74 74 75 80 81 82 81 82 82 83 83 80 84 87 82 79 78 96 93 96 100 96 99 85 97 85 86 89 93 90 88 90 98 99 100 99 98 99 97 86 84 72 76 74 50 45 47 40 40 38 38 38 40
76 76 76 77 79 81 82 81 82 83 83 80 81 85 87 82 81 91 98 98 93 95 100 99 90 91 89 92 96 93 95 97 97 99 99 98 98 100 100 100 97 75 74 70 78 44 53 48 43 41 41 41 36 35
74 75 77 77 79 80 82 81 82 83 82 80 83 86 88 86 86 98 100 98 97 95 99 99 93 96 95 98 99 95 95 96 98 98 99 100 97 97 98 99 83 69 66 61 64 42 40 43 40 34 36 35 34 33
71 72 74 76 77 78 80 80 82 82 82 80 82 87 88 90 98 100 99 98 90 95 100 99 99 95 92 97 100 100 99 100 98 99 100 99 100 98 99 93 85 59 56 58 45 45 52 43 48 36 34 34 38 31
68 69 72 75 75 75 80 80 80 81 81 82 77 83 87 88 92 98 98 91 96 98 100 99 99 99 90 99 99 100 100 100 100 100 100 99 100 100 98 82 76 67 56 52 46 41 44 44 40 36 29 28 31 32
68 66 68 71 71 72 76 76 78 80 81 78 72 75 84 95 99 95 85 90 99 100 99 99 98 98 85 99 100 99 100 99 99 99 99 91 98 96 81 64 80 83 74 58 43 46 44 44 37 32 30 32 38 41
66 65 65 69 71 70 72 72 75 77 79 74 80 97 100 84 73 75 89 100 99 99 100 99 85 98 98 94 98 99 99 97 97 96 94 94 68 53 54 58 53 51 47 38 58 61 52 44 38 33 33 36 42 50
68 67 65 66 68 64 64 68 70 73 68 86 97 96 82 73 74 91 99 100 96 98 93 93 79 95 77 96 99 94 97 97 94 90 89 92 71 53 47 47 46 44 39 40 39 38 33 35 37 42 48 60 62 68
65 65 65 65 68 68 65 68 69 78 91 89 88 87 84 89 96 96 95 83 75 81 91 93 94 83 86 78 92 91 90 96 91 74 95 95 80 56 53 58 49 37 37 35 36 40 47 47 57 61 69 82 86 87
65 64 65 66 69 67 69 66 68 74 78 80 92 93 94 83 92 85 90 80 89 90 96 92 97 94 86 84 92 90 95 90 78 96 91 90 75 70 57 49 42 37 39 41 61 70 75 78 77 81 87 86 87 91
62 65 67 69 73 69 68 65 72 78 88 95 82 84 89 90 91 90 94 94 76 86 88 98 94 96 84 89 91 82 83 83 90 95 96 89 82 77 71 79 74 78 79 84 83 82 87 89 91 87 89 89 88 92
67 67 71 69 67 63 65 73 76 84 92 89 85 94 85 87 93 94 94 90 78 81 91 93 94 90 92 88 83 77 88 86 78 95 95 93 90 91 90 89 90 90 91 90 87 90 92 91 91 93 93 93 90 93
66 69 69 66 62 66 73 74 77 78 94 89 82 94 90 99 95 97 96 94 77 81 92 94 88 85 83 84 77 79 68 86 98 99 93 90 92 94 94 92 92 92 92 92 93 93 92 92 94 96 93 92 92 92
66 96 69 63 65 71 73 79 82 94 87 71 89 83 98 97 99 98 98 98 92 93 93 94 84 76 87 88 73 96 99 98 98 96 89 89 93 96 94 94 93 92 93 93 92 91 93 93 92 93 96 94 91 90
75 68 67 68 67 74 81 73 92 85 74 91 97 97 96 98 99 98 98 97 97 98 92 91 92 78 89 72 99 99 98 98 96 95 97 92 92 94 91 94 94 94 93 92 92 90 90 90 89 90 93 87 89 94
72 75 74 72 68 90 81 84 76 94 88 90 92 86 95 96 97 97 96 96 97 90 97 92 87 97 98 98 99 98 97 92 98 99 98 91 89 90 91 94 95 93 92 92 92 90 85 84 83 89 88 88 96 95
73 72 74 68 67 93 91 89 79 87 87 89 91 93 93 97 97 100 96 96 96 97 93 94 95 97 98 98 99 98 96 92 93 97 99 98 94 92 95 95 94 93 91 91 90 91 90 92 89 87 88 86 94 95
63 66 66 68 72 83 90 88 87 79 80 85 78 81 92 93 96 92 89 89 92 94 95 95 96 96 98 98 98 98 98 98 89 91 94 98 97 93 96 93 92 92 94 97 97 96 92 93 92 93 95 94 97 97
76 66 76 64 90 90 96 70 71 82 80 84 76 71 89 92 94 97 97 91 95 96 96 96 96 95 94 97 97 95 97 98 96 89 89 93 96 96 95 95 92 96 94 94 92 93 97 92 90 90 92 96 94 93
68 74 81 72 84 81 79 65 76 67 82 84 78 74 88 95 96 87 96 91 96 95 95 95 96 97 97 94 82 84 88 91 97 99 94 92 94 92 96 94 92 94 97 98 95 97 96 93 94 96 96 94 96 97
69 80 91 88 81 88 80 83 79 73 77 74 74 76 92 90 81 89 97 97 96 89 92 94 94 94 93 90 93 93 94 89 94 95 96 98 95 96 96 93 93 92 92 96 97 97 97 97 95 95 94 92 96 98
96 94 97 88 85 83 77 76 74 66 76 71 79 93 90 91 97 96 98 97 94 95 93 89 95 91 93 91 90 92 95 94 96 95 95 94 98 99 99 99 99 99 94 96 97 97 98 96 94 93 92 94 97 98
92 90 94 79 86 80 79 79 82 79 83 79 88 79 86 90 92 97 98 98 99 98 98 98 97 93 93 93 94 92 95 95 95 93 95 94 94 96 96 96 97 98 99 92 94 95 96 96 96 95 97 97 97 97
91 90 71 56 61 57 84 78 64 80 75 80 88 82 85 94 98 98 96 97 98 97 95 96 96 97 98 95 92 94 95 95 95 95 95 94 94 94 97 96 96 97 96 96 93 91 94 96 94 94 92 92 94 94
82 77 90 88 80 63 83 84 79 79 84 69 78 80 89 99 100 98 97 94 93 92 91 92 90 96 96 95 92 92 93 93 97 96 93 92 94 94 95 95 95 96 95 96 96 96 96 96 96 97 95 95 97 94
88 82 79 90 85 82 82 81 86 84 73 81 90 97 98 95 96 97 96 94 92 94 97 97 97 95 97 92 90 90 91 93 89 92 94 95 95 95 95 95 95 95 96 96 96 96 96 96 97 97 98 98 98 97
92 78 87 85 88 86 99 96 98 96 80 90 77 69 84 98 97 93 93 94 97 96 97 96 96 96 98 98 97 96 93 92 94 98 99 97 97 97 96 96 96 96 96 96 96 96 95 96 97 98 96 97 97 97
78 86 86 87 95 96 97 96 94 92 90 90 92 95 98 98 97 93 93 95 96 95 96 96 96 96 96 97 99 100 99 98 96 94 94 97 96 96 96 96 97 97 97 96 96 96 96 96 96 96 96 96 96 95
93 86 90 90 98 95 91 96 96 94 94 93 95 93 93 94 99 98 95 95 94 97 97 95 94 100 99 97 99 99 98 99 99 99 99 100 100 99 98 96 96 97 95 94 94 96 96 97 97 96 96 96 96 96
89 90 90 93 95 93 90 90 88 85 88 90 97 93 92 95 99 98 94 94 96 95 96 96 95 97 95 91 90 94 99 97 97 97 99 100 100 100 100 99 98 96 96 96 96 96 94 92 94 92 93 96 97 97

GFSWCAN_sfc_rhum_225.txt.gz
RH
64 64 69 71 73 76 74 73 73 70 72 73 75 80 81 79 80 92 97 95 100 100 99 96 84 96 91 88 95 93 86 95 99 98 97 96 98 85 82 64 72 67 77 94 96 97 95 79 64 69 53 42 46 43
72 66 65 69 73 72 71 74 72 74 73 74 76 81 83 78 88 85 99 94 97 100 100 98 91 86 73 69 81 92 87 92 93 98 99 96 95 96 77 80 54 78 70 77 89 90 93 78 85 59 52 46 48 56
72 68 66 66 69 69 70 73 74 74 72 73 75 78 81 82 86 88 96 97 97 100 99 99 99 93 82 81 77 97 99 86 96 90 97 95 94 93 84 76 80 69 55 72 97 86 85 85 83 69 49 49 51 58
70 70 68 66 67 66 67 70 72 71 72 73 73 78 81 88 84 87 96 97 95 98 99 99 87 98 88 86 90 86 88 93 93 97 99 99 99 91 89 76 74 57 80 90 83 67 57 56 61 66 53 56 60 61
70 71 69 68 68 66 65 67 69 70 69 71 68 73 82 89 84 93 98 98 97 91 99 99 91 91 90 88 92 92 93 94 98 99 99 98 97 100 99 99 92 86 78 80 79 66 73 62 53 68 66 56 57 57
70 72 68 67 63 64 63 64 68 69 63 70 70 73 82 89 86 95 97 95 97 94 96 99 94 98 96 90 93 94 97 96 97 98 98 98 90 93 99 81 50 50 61 65 66 62 64 56 69 76 69 59 55 55
70 73 68 68 62 63 66 63 64 67 65 72 73 75 79 86 98 98 95 93 87 96 98 96 98 96 92 90 98 99 96 98 98 97 98 98 97 93 94 90 64 74 68 77 72 65 60 54 62 55 52 50 47 41
71 73 67 68 66 66 65 64 59 66 68 73 76 82 81 83 88 99 98 92 95 98 97 95 98 95 95 99 100 99 99 99 99 99 99 98 95 97 94 66 57 52 72 68 68 61 62 59 54 47 41 41 45 44
72 74 71 65 68 65 63 64 60 67 67 70 76 72 90 92 98 96 85 90 98 99 99 99 97 97 99 98 99 99 99 99 97 98 95 98 96 95 78 66 61 67 79 75 75 57 55 56 55 57 54 52 56 57
74 73 70 66 69 65 63 60 62 66 68 72 87 97 97 96 80 84 94 95 100 100 100 99 94 98 95 97 98 99 99 98 98 97 98 98 93 74 71 71 71 72 81 80 89 94 88 89 84 81 77 74 75 76
74 71 67 67 64 64 61 59 67 67 69 96 99 97 90 80 88 96 96 96 96 98 97 93 96 96 95 98 98 98 98 97 96 96 97 95 96 82 73 78 70 75 72 74 61 69 74 86 91 82 63 65 64 67
74 70 69 65 61 62 66 72 68 85 76 84 88 90 91 97 97 98 93 94 98 88 97 96 94 92 90 94 98 97 95 98 94 92 98 96 89 90 85 84 86 88 85 82 75 82 83 82 79 75 78 80 84 84
75 70 70 66 62 67 72 69 64 64 75 90 98 98 96 91 96 94 94 93 96 92 97 94 95 97 96 93 99 98 97 94 90 98 95 96 96 96 98 98 85 84 80 76 76 76 67 63 65 78 89 87 84 86
75 70 70 67 67 72 69 65 66 76 87 99 97 97 92 90 95 93 94 95 89 94 94 98 97 99 97 98 94 97 82 89 97 98 94 98 98 98 98 99 98 96 98 95 88 83 86 86 90 87 87 85 85 85
72 70 68 67 73 69 67 70 73 94 99 98 88 98 94 91 96 96 97 95 91 92 97 98 98 99 96 93 85 78 86 96 92 97 98 99 99 97 98 99 99 99 99 98 95 93 93 92 92 96 94 87 85 89
70 70 75 72 69 69 71 78 90 95 96 95 84 89 95 99 98 98 99 99 97 97 96 96 92 92 86 89 78 86 85 94 97 98 95 98 97 98 97 98 98 98 98 98 98 96 95 94 94 96 93 92 90 90
70 85 73 67 70 73 75 88 91 92 89 83 95 98 99 98 98 98 99 99 97 97 96 98 90 77 89 85 82 96 98 98 98 98 97 98 97 98 96 94 94 92 94 95 96 97 96 93 90 90 96 96 93 92
86 79 70 72 76 84 91 85 94 95 82 94 97 94 98 97 100 99 99 98 98 98 99 99 98 94 94 89 97 98 99 99 99 98 98 97 96 97 92 94 93 92 94 95 94 95 93 92 93 95 95 94 94 94
81 77 72 72 77 90 97 87 89 98 93 96 97 95 99 98 97 99 99 96 98 98 98 97 89 92 96 96 95 93 98 98 99 99 98 98 96 96 97 97 94 95 95 96 93 94 96 93 91 91 92 90 95 95
69 70 70 67 72 96 94 92 88 94 95 88 97 93 97 98 98 99 91 92 94 92 91 89 92 95 96 94 96 96 98 99 99 98 98 98 98 96 97 96 96 97 96 97 98 96 95 95 95 94 94 93 95 99
77 77 68 75 87 94 93 96 90 87 88 88 83 88 94 95 98 98 96 85 89 92 93 96 96 96 96 96 94 94 92 95 99 97 90 99 98 92 98 98 96 95 96 95 96 98 97 98 98 95 95 98 98 97
95 78 84 79 92 94 96 85 79 88 88 89 82 83 94 98 98 99 90 88 96 99 98 98 95 94 92 93 94 93 94 94 98 98 97 94 97 97 97 99 97 98 97 97 96 97 98 99 97 97 97 98 95 96
76 79 92 87 85 86 80 78 83 75 86 88 89 87 97 98 95 80 99 96 98 98 96 96 94 95 95 95 92 91 93 92 94 95 96 98 96 95 97 97 95 96 99 100 98 96 97 95 95 97 97 97 96 97
67 84 93 92 86 91 81 86 80 70 74 78 88 94 88 98 77 93 100 100 100 90 92 95 89 93 90 91 93 94 94 93 94 93 93 95 99 99 94 95 95 97 96 99 97 96 97 98 96 96 96 96 96 96
96 89 90 85 87 86 85 86 82 71 86 90 95 95 88 95 99 100 100 100 100 100 100 96 97 95 96 95 94 94 95 95 95 95 95 94 93 96 99 99 99 98 95 97 98 97 97 97 97 96 96 96 96 97
97 87 95 88 92 82 88 88 86 88 89 85 97 89 89 94 99 100 99 100 100 100 100 100 100 99 99 98 97 92 94 95 95 94 95 94 95 95 96 98 98 98 97 96 91 96 96 96 98 96 96 96 96 97
98 94 84 68 73 64 88 85 74 84 88 96 95 90 96 100 100 98 99 100 100 100 99 100 99 100 100 100 97 96 96 95 95 95 95 93 94 94 95 96 96 96 94 97 95 93 94 95 96 96 95 97 97 96
93 84 84 90 88 71 89 89 88 86 93 88 81 96 100 95 95 97 98 99 98 98 98 98 96 97 99 99 97 97 97 95 94 92 90 86 93 93 94 94 94 95 95 97 98 93 92 91 93 95 94 96 99 98
96 88 82 90 89 92 95 90 94 95 95 91 99 100 100 98 99 100 98 99 99 95 99 99 100 100 96 94 94 96 96 96 89 93 96 96 95 93 94 95 94 94 95 95 96 97 96 94 93 93 93 94 98 98
94 82 88 93 92 99 99 98 98 99 97 94 91 95 96 98 98 100 100 99 98 99 100 100 100 100 100 100 100 98 99 100 99 98 100 100 100 97 96 95 95 95 95 95 96 96 96 96 96 97 96 98 97 97
88 88 93 96 99 98 99 100 100 99 100 98 100 99 100 100 98 100 100 100 99 99 97 100 100 100 100 100 100 100 100 100 100 100 100 100 100 98 97 97 96 96 95 95 95 95 95 95 96 96 96 96 96 96
95 93 95 99 99 98 99 100 100 100 100 99 100 100 100 100 100 100 100 99 100 100 100 100 100 100 100 100 100 100 100 100 100 100 100 100 100 100 99 96 95 93 93 95 96 96 95 96 96 96 96 96 96 96
93 95 96 97 98 99 98 95 99 100 99 100 100 100 100 99 100 96 98 99 97 98 99 97 100 100 100 100 100 100 100 100 100 100 100 100 100 100 100 100 100 98 94 95 96 96 96 96 96 96 96 96 96 96

GFSWCAN_sfc_rhum_228.txt.gz
RH
70 70 70 73 67 66 67 72 70 70 71 72 74 71 70 70 72 86 98 93 98 99 92 89 93 99 98 98 98 100 97 100 99 98 97 97 98 88 86 70 65 70 90 93 89 95 89 49 67 84 72 82 83 76
72 73 73 73 69 67 66 67 66 66 69 73 70 68 68 70 74 86 99 95 94 100 100 96 94 91 88 90 97 98 90 95 96 97 98 97 97 98 82 80 66 82 72 80 87 84 70 90 87 81 76 77 78 78
72 73 69 71 70 68 66 67 66 66 68 69 68 63 73 70 74 89 99 98 100 100 98 100 100 92 85 92 83 99 100 88 93 89 95 94 90 91 90 86 74 69 57 68 65 52 50 46 48 55 69 78 73 76
74 74 68 71 71 68 67 64 66 64 65 67 65 62 69 71 84 89 99 97 97 99 99 94 92 99 90 89 85 83 88 92 93 96 99 99 98 85 90 70 77 67 66 65 68 61 59 52 57 57 49 50 59 69
76 73 69 72 70 68 67 64 66 63 63 63 67 64 66 72 87 96 98 98 97 96 99 97 91 93 92 89 89 88 90 98 100 100 99 98 97 98 96 98 96 75 62 76 71 54 71 59 54 49 64 66 67 76
69 72 70 72 71 66 64 65 68 68 61 59 67 67 69 75 87 98 98 95 98 96 98 98 95 99 96 90 91 92 95 97 97 98 97 98 84 90 98 91 60 63 67 62 61 49 51 50 51 49 60 55 66 87
68 70 69 74 69 66 62 67 65 67 63 61 68 69 72 81 98 100 95 92 89 96 98 98 97 98 90 89 93 98 94 98 98 98 99 97 96 95 97 87 62 59 53 51 49 54 63 62 74 62 59 63 86 86
66 69 70 75 71 64 63 67 64 63 60 64 68 71 78 81 90 99 97 88 94 99 99 96 93 96 92 94 96 97 99 99 99 99 99 99 96 94 94 62 60 51 47 49 49 55 71 68 61 56 55 54 60 62
69 70 71 75 70 68 63 63 63 58 64 66 68 74 92 92 98 94 80 90 99 100 99 99 99 96 96 98 99 100 100 99 97 98 97 97 98 95 75 67 56 51 57 56 53 53 62 66 57 55 52 56 57 61
68 70 73 73 68 67 64 62 60 62 65 69 88 97 98 96 80 82 90 99 100 100 100 99 97 98 98 98 99 100 99 98 98 96 98 98 85 59 54 55 72 75 68 58 76 85 76 75 71 67 62 66 61 66
68 69 74 70 68 67 59 62 70 63 70 93 96 94 87 81 95 95 98 97 95 95 98 93 95 98 96 98 97 98 98 98 98 91 97 96 97 81 80 88 82 78 71 64 70 65 60 65 74 88 88 80 74 75
70 68 73 70 69 68 58 69 69 80 83 81 81 91 95 99 98 98 94 92 91 89 96 98 94 94 92 97 99 98 96 97 93 94 98 97 88 86 90 92 93 91 82 72 76 68 69 79 80 86 86 89 92 91
71 70 76 70 69 65 67 71 68 65 68 88 99 99 97 89 99 96 96 95 95 89 96 93 96 97 97 99 99 99 97 94 89 98 93 90 87 85 88 92 95 96 92 87 80 72 82 86 91 98 99 99 98 98
69 69 74 70 68 67 72 69 66 66 91 100 96 99 95 94 94 96 95 92 85 94 94 99 97 98 98 99 95 99 85 90 96 98 90 95 95 93 97 98 94 98 98 98 98 93 92 97 99 100 98 95 94 93
68 70 73 70 68 67 68 69 70 91 98 98 96 98 95 93 97 96 98 97 92 93 98 98 98 98 98 98 90 81 84 95 94 98 98 97 98 99 98 98 98 98 98 98 99 98 98 98 98 98 97 90 88 91
70 74 76 67 69 66 71 77 90 93 99 99 96 98 94 98 97 98 97 98 98 99 99 98 96 96 90 91 84 89 90 96 98 98 97 98 97 97 97 97 98 98 98 98 98 98 98 98 97 97 97 94 93 90
70 96 69 67 68 71 76 91 88 94 84 81 98 98 98 96 97 99 99 99 96 99 99 96 96 86 91 94 88 96 97 98 98 98 99 98 98 98 96 95 98 96 97 97 97 97 97 98 97 95 96 96 94 93
90 90 74 71 75 86 90 88 95 95 89 93 98 95 99 98 98 99 99 98 98 92 93 95 96 95 95 89 95 95 94 94 98 99 98 98 97 97 94 95 94 96 95 97 97 97 96 93 93 96 95 94 94 94
93 90 76 69 76 94 99 88 90 98 91 95 98 98 99 98 99 91 97 94 97 94 98 96 88 91 95 98 96 93 93 94 97 99 98 98 97 98 97 96 95 97 97 97 95 96 96 94 96 93 91 89 95 94
73 70 69 68 74 97 97 95 89 94 96 89 97 96 97 98 98 94 89 90 84 87 91 92 95 94 98 96 96 95 94 94 96 98 99 98 98 98 97 97 98 98 97 97 97 97 96 96 96 94 93 92 95 97
79 82 76 80 95 95 94 96 92 89 88 90 85 89 97 97 97 96 92 78 87 94 93 95 99 96 95 96 94 94 93 93 97 98 97 98 98 98 98 98 97 95 96 97 96 97 97 97 99 96 96 98 97 96
91 82 89 82 93 95 98 84 85 88 88 86 84 85 97 98 100 100 88 90 96 98 98 99 97 96 92 93 95 92 93 92 91 93 97 97 98 98 99 99 98 99 98 99 96 97 97 97 96 96 97 99 96 96
78 84 96 93 91 90 85 79 88 80 86 88 90 91 98 98 93 74 98 95 99 98 97 97 94 96 96 92 92 89 89 90 94 94 94 96 99 98 98 98 98 97 99 99 98 97 98 97 97 97 97 97 96 97
72 91 95 95 88 94 78 86 80 66 74 79 91 94 92 95 76 93 100 100 100 94 94 96 94 96 93 88 92 93 94 92 94 93 94 93 96 98 98 95 97 94 97 99 98 98 97 98 98 96 96 97 96 96
97 90 94 95 88 89 86 88 85 73 90 94 93 91 90 95 99 100 100 100 100 100 100 97 97 97 100 99 96 94 95 94 95 94 94 94 94 93 97 99 99 99 98 97 98 98 98 98 97 96 96 95 96 97
96 89 97 92 93 85 87 89 87 91 88 90 96 91 90 95 97 100 100 100 100 100 100 100 100 99 98 99 100 96 95 94 94 94 95 94 95 95 96 96 97 97 94 97 97 98 98 96 96 97 96 96 95 96
98 96 91 72 69 64 88 87 75 83 90 93 94 94 96 99 100 97 99 100 100 100 99 99 98 100 99 98 96 96 96 95 96 95 95 94 94 95 95 96 96 95 95 96 98 95 95 96 97 97 97 96 96 96
91 87 89 89 87 75 89 89 89 86 92 86 84 99 98 90 92 96 98 98 100 97 98 98 96 98 99 100 98 96 95 94 92 93 93 92 93 94 94 94 94 95 95 96 97 97 95 93 94 95 96 96 98 98
97 88 81 92 93 96 96 90 92 92 94 89 100 100 100 98 98 100 100 100 100 97 99 99 100 100 97 97 97 97 98 96 89 94 100 99 95 93 93 94 94 94 94 95 95 97 96 96 94 93 94 95 97 97
96 78 87 94 95 99 98 98 97 99 95 96 97 94 94 98 98 100 100 98 98 100 100 100 100 99 100 100 100 99 100 100 100 98 100 100 100 99 97 96 96 95 94 94 94 95 96 97 97 97 96 97 98 97
84 88 95 95 99 98 99 100 100 100 99 100 100 99 100 100 98 99 99 100 99 100 100 100 100 100 100 100 100 100 100 100 100 100 100 100 100 100 100 98 97 96 95 94 94 95 95 95 96 96 96 96 97 96
94 95 94 97 99 98 97 99 100 100 100 100 100 100 100 100 100 98 100 100 100 100 100 100 100 100 100 100 100 100 100 100 100 100 100 100 100 100 100 100 98 96 95 94 95 95 95 95 95 95 96 96 96 96
95 96 96 96 98 99 98 95 98 100 100 100 100 100 100 100 99 97 98 99 98 97 100 96 100 100 100 100 100 100 100 100 100 100 100 100 100 100 100 100 100 98 94 95 95 95 96 95 96 96 96 96 96 96

GFSWCAN_sfc_rhum_231.txt.gz
RH
78 70 69 72 73 72 72 68 66 66 66 64 65 69 73 69 64 76 92 87 99 99 91 82 78 95 97 97 98 99 100 100 99 98 96 91 88 73 71 46 60 80 90 90 90 94 90 33 33 47 37 33 32 33
79 71 72 73 73 69 71 68 67 66 66 66 65 67 66 63 65 72 98 88 92 100 99 89 78 70 75 91 99 100 100 95 92 95 94 90 93 90 67 72 46 68 63 72 70 71 52 38 40 40 32 35 62 69
75 70 72 76 71 69 71 69 66 69 63 63 64 63 63 68 67 73 96 96 99 100 99 100 97 82 88 95 91 100 100 94 98 83 92 87 85 80 86 74 57 53 47 63 66 52 50 48 42 64 58 55 44 40
71 73 73 76 70 69 74 68 67 69 63 65 66 55 62 71 72 73 98 97 100 100 99 91 86 99 89 93 96 95 95 92 88 92 99 96 92 74 75 58 65 52 59 60 61 48 40 38 37 36 38 40 42 45
72 74 68 72 70 70 71 66 66 66 67 66 66 58 58 70 68 84 99 98 98 99 97 94 83 84 91 93 95 93 98 98 100 100 100 95 89 88 88 88 83 55 55 68 65 43 45 41 37 39 49 48 43 44
73 77 69 70 69 70 74 66 64 66 66 67 67 58 64 65 70 99 100 95 97 94 96 99 82 90 94 98 98 99 99 100 99 97 96 96 86 84 93 78 53 55 56 48 50 38 40 41 44 37 44 44 43 48
75 74 67 68 69 72 71 64 65 67 64 67 60 60 64 68 94 100 99 92 91 94 99 95 90 86 88 92 99 100 100 100 99 98 94 86 84 88 92 81 53 52 50 51 49 52 59 50 55 44 43 42 50 54
73 69 68 70 70 74 68 68 63 63 66 59 62 66 68 72 86 98 97 90 95 99 99 96 90 89 91 95 96 96 95 96 96 92 92 91 82 83 86 52 50 48 46 47 46 44 51 50 50 50 48 48 49 55
70 69 69 70 72 73 68 67 64 65 66 65 65 72 88 92 99 89 77 83 98 100 98 96 94 95 97 92 93 99 96 96 93 95 94 89 82 89 65 55 50 48 53 52 46 46 46 50 48 47 46 54 58 60
69 70 71 70 74 73 67 68 63 66 68 67 84 92 96 96 79 79 86 100 100 100 100 97 88 96 94 91 95 95 96 91 94 82 85 92 70 54 49 50 58 62 58 57 71 73 66 63 59 57 57 53 57 70
66 68 69 68 71 73 69 66 60 70 69 87 93 92 82 80 91 91 97 96 94 93 94 90 88 87 88 94 92 92 92 89 92 75 89 83 82 68 66 76 74 75 75 77 72 63 55 59 61 63 62 68 73 79
69 64 68 68 74 72 68 65 68 77 78 77 77 90 94 96 96 96 94 86 86 83 92 92 86 86 86 89 94 91 90 92 87 86 93 86 72 71 78 82 78 76 76 80 81 83 68 59 63 67 74 79 86 82
74 71 68 68 73 70 68 67 71 66 64 82 98 99 97 85 93 91 95 92 90 82 87 86 92 90 92 94 94 95 95 90 81 96 85 73 73 81 84 84 85 76 80 90 90 83 70 70 76 89 100 100 100 100
78 72 68 68 72 70 69 69 67 72 86 95 94 98 93 91 90 86 84 82 78 84 85 88 93 90 89 94 88 96 78 83 90 94 84 83 88 91 96 94 92 92 93 97 97 90 89 98 98 99 99 100 99 98
70 76 70 72 64 66 66 64 69 83 97 90 94 95 95 85 88 90 90 90 85 89 94 97 96 92 92 93 86 82 80 89 85 94 85 88 92 96 95 95 95 96 96 97 98 98 99 98 97 98 98 99 99 99
65 83 80 66 63 67 67 76 89 96 100 96 95 96 89 94 96 96 94 94 94 95 97 96 94 94 89 84 87 82 84 93 89 90 92 89 89 92 94 94 96 96 97 97 96 97 97 97 97 98 98 98 98 98
66 96 76 66 70 69 72 86 96 99 91 81 98 92 92 90 85 95 95 96 92 97 98 90 98 86 85 88 90 93 94 91 92 91 90 91 96 94 95 92 96 93 96 97 98 98 98 98 97 94 96 97 97 97
89 94 80 74 77 77 90 86 95 91 92 91 96 93 98 94 96 97 94 94 94 91 88 94 91 92 90 87 89 89 87 88 82 85 91 92 91 92 92 92 95 96 96 98 98 98 97 96 94 95 96 97 96 97
82 95 88 79 77 91 97 88 89 96 90 87 92 90 92 95 95 83 86 89 93 85 95 84 81 87 90 89 89 88 88 88 92 92 93 96 95 95 95 95 96 97 97 98 95 95 95 94 92 91 94 94 94 95
68 95 76 69 69 98 98 95 89 92 92 89 90 91 88 96 94 90 87 83 87 85 87 86 88 91 90 88 90 90 90 88 90 93 93 95 95 93 94 94 95 95 94 94 96 96 95 95 96 94 91 89 92 95
98 81 79 81 90 96 95 93 91 89 84 85 82 84 97 94 92 93 90 70 83 87 87 88 93 90 88 90 88 88 88 86 89 92 94 94 94 92 93 93 90 89 91 95 95 96 96 96 95 92 95 97 96 95
92 77 88 85 96 96 96 82 84 81 82 80 82 81 94 97 96 94 72 84 91 93 91 92 90 89 85 88 90 91 92 88 86 89 89 91 91 93 93 94 90 94 93 93 91 96 95 92 92 94 96 97 92 94
82 88 94 96 96 94 88 78 82 77 90 86 82 90 94 93 86 63 94 88 94 93 91 90 90 88 90 88 85 82 85 87 88 89 90 91 92 92 92 92 89 92 93 94 90 92 95 92 94 96 94 94 94 95
78 92 97 96 94 96 79 89 77 69 71 78 90 92 91 87 69 85 96 97 94 85 85 91 84 84 83 86 89 88 90 86 87 89 88 89 90 91 91 92 93 90 90 90 90 94 94 96 94 93 95 95 94 94
96 90 95 97 92 95 88 82 80 69 84 88 87 86 92 88 95 95 93 96 94 95 95 89 87 88 90 90 90 90 90 89 90 90 94 91 89 90 92 94 92 92 93 95 96 96 96 96 95 94 93 92 92 94
98 89 96 95 96 93 87 86 86 87 86 92 90 85 81 86 89 97 93 95 98 95 99 99 96 91 90 92 92 89 92 91 87 88 92 92 93 94 94 94 94 93 90 93 96 96 95 94 95 95 95 94 94 94
98 96 90 76 84 67 86 80 69 78 87 90 86 87 88 91 95 89 92 94 93 96 93 92 90 91 94 92 89 87 86 87 91 88 91 90 91 93 94 95 94 93 92 93 94 95 94 94 96 95 95 94 93 93
90 87 94 92 85 69 84 81 80 86 85 76 78 89 86 85 89 90 93 95 96 90 89 88 86 86 88 90 91 90 86 86 86 85 78 81 90 93 94 94 93 94 94 95 95 96 96 96 94 94 95 95 96 93
98 89 83 96 94 91 92 85 88 86 83 81 94 98 98 92 95 95 94 95 94 88 89 89 93 92 87 85 91 92 94 90 85 91 94 96 94 90 90 93 94 94 94 94 94 95 96 95 95 93 92 93 94 94
98 89 92 93 95 96 97 95 94 96 89 91 88 89 89 95 96 95 95 95 95 95 95 94 98 95 95 91 93 91 96 99 97 93 95 98 96 94 94 93 93 94 95 95 95 95 95 97 97 96 96 96 96 97
90 92 94 93 97 98 98 98 98 94 96 95 99 97 97 98 96 95 94 95 99 100 100 100 99 100 96 95 94 90 94 95 99 96 94 95 96 95 96 95 93 92 91 94 94 95 95 95 96 96 95 96 95 95
96 95 94 96 98 97 94 97 99 97 99 98 99 100 99 99 100 96 98 96 98 97 100 99 94 92 98 99 100 98 99 95 95 97 96 95 95 96 97 94 93 90 89 90 93 93 94 94 95 95 96 95 94 94
96 95 95 96 97 97 97 93 94 96 98 100 100 100 100 96 96 96 95 96 96 94 95 94 94 98 100 100 97 99 99 99 100 100 100 100 100 100 97 94 90 90 90 92 91 93 93 94 95 95 95 95 95 95

GFSWCAN_sfc_rhum_237.txt.gz
RH
71 72 76 77 78 73 70 71 73 69 68 71 67 66 66 69 68 70 61 71 97 100 76 54 50 59 62 72 90 83 88 96 100 99 90 82 75 55 55 42 49 80 77 84 88 88 86 24 22 32 27 22 21 22
75 76 75 76 72 71 73 74 76 69 70 70 66 68 67 61 59 62 77 52 65 98 95 56 53 50 50 52 80 89 93 81 95 98 93 81 91 76 56 60 33 62 58 58 54 61 37 26 25 22 20 22 23 23
71 72 76 70 70 74 68 68 73 68 71 69 68 68 66 60 61 63 61 50 81 99 87 75 82 54 50 56 60 99 86 69 79 69 95 85 93 65 82 68 51 37 35 53 54 36 27 26 22 23 21 23 21 20
75 72 68 69 73 75 68 71 70 69 72 69 64 64 61 63 63 62 72 52 86 100 98 74 37 51 52 55 61 73 78 70 94 96 100 99 86 53 66 52 57 46 41 46 50 37 32 28 25 24 22 22 20 20
73 72 68 72 76 74 67 68 69 69 73 71 67 65 65 63 62 69 77 59 63 97 94 84 58 46 45 58 64 63 77 90 100 100 100 94 64 68 61 63 61 38 45 62 68 38 39 33 25 22 24 23 22 22
71 70 71 71 71 68 66 69 69 72 72 69 66 61 61 62 63 85 99 90 94 98 100 92 56 60 65 71 80 80 89 98 100 100 98 77 63 90 90 62 36 33 37 37 36 28 31 30 28 24 26 25 23 22
69 71 71 68 68 67 67 69 71 71 67 67 60 60 64 63 70 98 80 90 84 97 100 90 69 58 65 75 84 96 100 100 100 100 98 80 68 78 74 66 36 31 26 27 27 33 37 31 32 27 27 25 28 23
70 69 69 68 68 67 69 70 73 71 69 68 61 61 69 68 66 83 58 69 82 100 99 94 70 78 66 84 87 80 99 98 100 87 74 71 63 90 74 36 29 25 24 27 27 28 32 30 28 28 25 25 26 27
83 78 71 69 70 69 69 69 74 71 70 65 64 68 61 77 91 74 76 79 90 99 100 98 70 80 61 66 69 85 82 96 76 96 73 67 63 72 42 33 32 32 38 40 37 37 36 39 37 34 32 31 32 29
64 65 73 81 69 67 68 69 71 72 65 65 58 77 100 65 71 64 78 98 99 100 100 90 47 81 70 63 80 83 87 77 86 64 58 80 55 37 31 36 37 42 38 40 53 62 60 60 59 57 50 43 38 33
59 60 65 66 78 71 67 67 71 69 62 48 71 78 56 65 54 87 99 86 73 88 69 57 46 51 67 77 84 76 78 69 75 52 62 58 55 47 47 42 44 45 46 48 49 52 53 61 66 71 67 57 52 49
59 60 59 62 65 79 71 68 71 63 58 70 59 48 56 66 84 86 76 57 57 53 59 64 65 57 71 53 68 62 70 65 66 64 72 59 81 56 53 58 57 53 54 56 56 61 62 59 64 77 88 86 70 61
61 64 61 61 64 73 74 68 70 71 66 47 74 79 84 70 96 76 71 57 64 50 60 62 83 68 59 54 72 71 90 74 52 86 61 54 65 58 60 64 65 60 66 70 69 64 65 65 74 96 97 90 84 80
58 65 61 63 61 64 73 66 62 60 60 66 67 86 77 78 60 43 43 51 58 47 46 52 66 66 60 72 62 84 58 58 77 69 55 81 69 70 69 75 74 78 76 81 80 78 75 86 92 98 100 100 100 100
55 61 65 63 61 66 68 63 62 55 67 70 58 78 58 46 49 57 57 54 51 51 64 79 73 60 60 71 60 61 87 72 52 72 81 74 72 76 82 85 82 91 96 96 100 99 99 99 100 100 100 100 100 100
54 55 54 80 80 76 66 64 66 61 72 56 51 62 59 67 88 86 71 73 62 71 76 80 70 69 80 56 57 68 51 61 88 78 74 65 67 70 78 82 86 91 97 100 100 100 100 99 100 100 100 100 100 100
54 61 62 65 62 74 90 88 80 91 62 54 75 57 65 63 77 76 70 69 70 76 82 62 82 58 54 58 49 72 87 85 78 76 68 69 82 84 78 77 92 92 99 100 100 100 100 100 100 99 97 100 100 100
49 41 52 69 64 84 75 73 78 66 73 57 67 77 63 64 72 74 62 64 74 70 66 67 66 58 66 61 79 80 74 72 67 70 70 74 83 89 86 87 95 96 95 100 100 100 100 100 97 98 100 100 99 100
49 46 53 56 74 99 94 73 65 81 58 50 50 54 58 64 63 67 70 73 69 73 87 74 66 60 66 72 76 74 74 73 80 79 76 86 96 99 98 87 89 100 100 100 100 98 98 100 99 99 99 97 94 97
52 55 56 59 73 100 98 66 58 63 58 51 52 64 61 68 68 90 79 74 75 82 87 82 74 82 78 77 76 76 74 74 74 80 78 79 84 84 89 92 85 96 90 97 99 98 96 91 90 85 88 95 94 97
48 49 61 63 83 98 82 58 62 52 50 59 52 51 71 72 79 86 80 63 83 78 72 69 81 78 76 78 70 69 69 71 76 80 82 85 82 81 92 83 78 84 83 88 97 99 93 92 89 85 96 99 97 96
50 58 83 69 82 86 84 44 52 52 65 58 53 55 71 86 84 84 67 75 82 80 73 75 74 73 69 81 75 71 75 72 68 70 73 75 83 81 87 89 78 88 89 93 88 98 91 86 84 85 97 100 91 93
53 67 86 74 97 81 65 40 65 55 74 65 50 64 76 75 70 54 83 68 84 76 70 67 73 76 76 78 72 70 71 71 74 77 76 77 79 88 85 85 84 90 91 89 88 88 92 87 85 95 94 93 94 99
64 94 93 84 83 72 60 65 52 51 58 60 61 74 76 76 58 69 77 75 81 64 63 73 62 70 71 75 70 74 76 70 73 75 75 77 77 82 88 86 81 82 85 94 92 95 95 96 89 86 97 100 100 97
94 81 93 81 72 71 81 71 61 58 78 63 76 90 84 69 84 76 76 84 74 73 70 64 64 62 65 70 68 72 75 75 80 80 79 76 78 78 82 85 85 85 83 90 92 99 100 100 100 99 90 90 88 92
86 81 85 69 70 65 61 62 66 71 66 79 81 77 69 76 79 73 72 81 84 80 81 80 77 68 64 65 64 65 72 69 74 74 79 77 81 86 88 89 90 89 85 91 93 94 97 100 100 100 100 92 85 90
85 86 70 44 48 51 74 69 61 74 81 80 82 83 80 79 71 77 69 67 70 74 67 67 65 64 66 66 66 67 66 67 73 75 73 73 76 79 86 91 90 90 87 90 92 93 94 95 100 100 100 100 100 100
68 62 78 72 67 56 79 74 79 80 77 56 64 80 73 61 69 73 70 69 72 62 61 60 57 57 61 62 64 68 70 68 73 70 69 68 66 70 73 76 76 83 91 93 93 94 94 92 96 100 100 100 100 100
72 62 68 88 82 82 85 82 77 63 58 59 72 73 76 72 80 76 70 67 66 66 68 72 77 73 68 64 72 71 75 76 73 66 65 75 77 77 75 76 77 78 83 90 91 93 94 94 94 98 100 100 100 100
78 63 74 78 83 86 88 79 88 82 61 65 60 59 64 81 83 80 75 72 70 76 76 76 78 78 77 76 78 78 80 81 82 83 83 83 85 80 80 81 81 81 80 84 90 91 89 93 98 99 100 100 99 98
72 73 77 74 81 85 88 88 86 80 79 79 78 75 76 84 85 82 78 75 80 81 80 79 77 73 73 74 75 76 82 83 80 78 79 79 79 80 81 81 80 80 79 80 85 88 94 93 94 97 100 96 90 90
85 80 80 82 86 88 89 90 84 80 81 81 84 81 85 84 82 84 80 82 82 80 74 71 74 80 78 79 80 84 76 78 78 79 79 82 82 81 81 77 79 79 79 78 82 85 84 90 93 94 95 100 97 92
82 82 83 84 87 86 88 86 69 81 78 78 81 76 75 75 79 89 79 84 86 78 75 76 86 82 78 74 76 82 73 82 86 87 83 83 85 88 83 81 82 81 78 78 78 83 84 84 90 93 93 96 99 98

GFSWCAN_sfc_rhum_243.txt.gz
RH
66 67 73 76 76 77 76 75 72 71 72 73 75 71 70 73 68 82 92 86 95 97 83 71 70 81 79 86 95 81 89 89 98 99 99 92 96 83 83 60 60 68 82 97 93 97 93 38 39 50 48 43 39 40
68 71 75 74 74 76 73 72 71 75 70 70 76 72 71 72 67 73 96 75 69 95 89 65 63 60 65 70 87 89 90 88 94 96 95 98 95 90 80 96 65 90 74 95 78 81 58 53 46 38 38 41 45 45
70 72 70 75 72 69 68 70 76 74 69 72 70 68 73 70 68 72 93 86 93 96 88 83 84 60 52 57 54 91 80 71 87 72 98 96 99 96 96 88 76 57 53 97 100 81 62 63 49 42 36 37 36 37
67 68 69 71 72 70 73 75 76 72 68 70 69 69 73 69 66 65 95 87 94 99 99 83 49 66 53 54 59 65 70 87 97 99 99 99 96 88 94 82 83 69 62 72 73 60 62 60 55 50 48 47 42 41
70 70 71 70 70 71 71 69 70 68 69 70 68 70 73 70 68 75 81 78 75 95 99 94 67 53 48 51 58 66 82 92 99 99 99 96 97 86 92 88 91 66 68 84 74 53 58 55 54 52 52 49 44 41
77 76 71 69 69 69 68 69 68 68 69 69 74 72 66 68 65 90 95 89 76 86 99 99 79 63 58 68 69 81 85 91 100 99 99 98 76 85 97 96 58 52 51 54 58 48 54 54 47 43 46 46 41 42
66 67 75 80 77 72 69 69 68 69 69 70 73 68 68 69 86 97 95 97 93 98 100 96 96 79 79 81 91 96 90 100 100 100 99 90 85 83 98 87 56 50 48 45 46 50 59 54 58 49 48 42 43 40
61 60 64 65 70 79 78 71 69 68 69 69 72 72 71 68 74 90 75 70 91 99 100 98 94 89 77 98 97 96 100 100 99 98 98 96 91 95 97 71 55 49 66 57 49 49 53 53 53 52 49 50 52 51
59 58 61 60 62 65 70 76 72 68 68 70 72 72 81 90 95 88 66 70 86 96 96 98 98 93 84 95 97 99 98 99 98 98 96 92 94 95 79 67 75 70 68 59 57 60 59 64 62 60 59 58 60 58
57 61 63 62 61 61 63 66 72 74 68 69 81 94 99 94 67 76 94 98 100 100 100 98 83 89 94 98 99 100 100 98 99 94 93 97 86 62 92 65 64 60 59 62 76 80 76 78 77 76 72 67 67 65
56 58 57 59 66 63 62 64 71 72 69 87 99 97 73 75 81 93 91 98 92 98 98 93 78 78 72 80 87 92 97 96 98 87 93 96 96 99 97 92 66 67 68 71 74 75 75 73 75 77 75 73 72 69
56 56 57 57 58 63 61 62 66 87 92 88 89 80 77 75 92 91 94 86 87 82 90 91 90 85 89 90 92 99 94 90 87 85 95 95 97 74 70 73 70 68 70 70 66 70 72 68 72 77 80 79 78 82
54 56 59 58 56 56 61 62 64 71 72 82 89 93 94 85 98 93 94 84 88 72 86 84 92 93 90 90 96 93 91 91 83 93 91 97 89 74 73 71 70 66 69 77 74 74 76 77 77 86 90 83 85 89
55 57 60 61 62 66 64 64 65 73 82 92 95 94 93 92 86 74 73 82 76 81 97 99 98 95 93 97 94 94 82 88 89 89 89 98 91 80 76 76 83 86 81 84 88 87 89 90 92 92 92 93 97 94
56 56 61 61 64 77 74 73 67 79 86 93 88 94 83 73 77 84 74 76 77 83 93 97 94 87 93 88 83 81 86 88 89 99 99 96 86 84 87 88 91 91 89 93 94 94 94 94 93 93 94 97 98 97
60 53 54 62 56 59 63 72 83 84 96 90 80 86 84 87 90 92 93 94 84 86 95 95 88 87 81 80 81 84 74 88 99 99 96 84 78 81 91 84 93 90 93 92 92 92 96 96 97 97 92 92 93 97
61 66 53 54 62 56 60 94 87 100 97 81 91 88 82 85 82 84 92 94 82 97 97 92 93 81 86 88 76 97 99 99 97 96 94 83 89 98 85 86 82 87 82 86 98 92 94 96 95 92 94 93 95 94
70 58 52 75 56 66 80 86 92 88 84 86 87 84 87 87 84 88 91 88 92 98 98 96 92 81 90 87 96 98 98 96 94 95 93 82 94 92 89 91 82 91 82 87 98 98 97 96 93 94 96 93 94 93
71 68 59 62 59 83 95 86 86 91 81 81 77 75 80 87 89 82 86 88 90 88 96 96 84 87 92 99 98 98 96 95 96 95 89 95 92 94 91 87 89 91 93 93 96 99 98 98 91 90 97 96 97 97
61 51 50 60 64 94 94 88 77 84 76 73 65 66 66 71 73 89 89 88 94 98 98 96 91 98 98 98 98 97 93 89 86 93 96 96 91 84 89 93 95 93 94 92 93 99 99 98 93 91 96 98 98 97
53 53 49 61 82 86 87 86 83 77 71 75 69 64 75 90 90 93 95 89 95 98 93 94 99 97 92 94 94 94 91 90 94 88 95 94 90 86 90 91 94 98 97 98 97 98 98 100 98 96 97 98 98 98
73 56 74 64 89 83 97 69 76 76 82 79 75 72 88 92 92 95 93 96 98 95 98 98 97 91 93 91 93 89 90 82 81 92 88 88 95 94 95 96 96 97 96 96 95 97 99 99 99 97 97 97 97 97
64 67 80 74 93 83 83 66 74 61 77 81 70 75 87 91 94 91 98 97 98 96 94 95 92 92 92 89 85 82 86 88 97 94 96 96 90 90 94 97 94 96 96 92 93 96 96 98 99 97 96 96 97 97
60 89 95 89 77 91 75 83 75 66 70 69 68 70 69 91 92 96 97 97 99 92 89 89 87 93 94 91 96 96 93 94 98 95 96 96 93 92 96 96 90 90 91 92 92 94 94 95 96 98 97 96 97 98
97 92 92 93 79 82 83 82 75 63 83 86 79 86 94 97 98 97 96 99 96 96 94 90 93 91 94 96 94 97 89 94 98 98 97 97 97 96 94 89 95 93 87 93 94 94 94 94 93 95 98 97 97 98
96 80 86 79 85 70 80 86 83 83 84 83 82 94 97 97 97 97 97 97 98 97 96 96 96 93 96 96 95 97 95 93 96 97 98 97 97 98 99 98 96 95 88 95 96 95 94 94 94 94 95 97 93 97
91 94 59 47 50 54 77 71 59 81 88 83 88 97 96 97 96 98 98 98 98 96 93 94 96 97 89 94 94 95 94 92 92 94 96 94 94 96 97 99 98 97 93 92 95 95 96 95 94 94 95 95 99 99
82 61 73 74 66 46 74 86 88 90 88 90 95 96 96 95 99 98 98 95 91 83 78 78 81 83 87 93 96 94 95 93 94 93 96 94 94 95 94 96 95 90 94 94 92 92 94 95 95 95 95 96 98 100
83 66 60 71 84 82 77 96 92 95 83 88 93 97 98 98 98 98 94 94 91 84 88 91 95 93 92 92 94 95 96 97 94 87 92 100 98 98 98 97 97 97 96 95 91 87 90 87 94 96 96 96 96 99
84 70 86 90 96 92 98 97 98 95 91 92 80 79 90 96 97 96 94 94 94 94 95 94 96 95 97 95 100 100 98 98 99 100 100 100 100 99 98 98 96 96 93 95 91 91 92 86 87 91 94 94 98 99
75 80 84 95 97 98 97 96 94 94 94 92 97 96 98 97 96 96 94 96 95 90 92 95 95 94 95 98 98 98 100 99 96 96 97 99 100 99 99 98 98 96 94 94 94 94 92 92 92 93 94 95 95 98
88 94 95 95 99 97 94 96 96 96 95 96 98 95 98 97 98 97 98 93 94 95 92 91 95 98 97 98 98 95 96 98 100 100 100 100 100 100 99 99 98 96 97 96 96 96 95 95 95 95 94 95 95 95
96 95 91 94 96 96 96 97 95 96 95 97 96 94 92 94 97 98 96 96 96 94 93 94 91 94 94 95 96 97 98 98 100 98 100 100 100 100 100 100 99 99 98 99 97 98 97 97 96 97 95 95 95 95

GFSWCAN_sfc_rhum_246.txt.gz
RH
66 63 63 71 75 74 74 76 74 75 71 72 74 71 74 71 71 88 91 94 96 97 83 71 67 82 84 93 95 86 91 90 97 98 98 97 98 95 93 72 67 77 85 98 96 96 92 48 50 62 51 45 41 44
65 66 70 74 76 74 73 71 73 71 74 73 71 72 76 72 72 77 92 86 82 100 94 75 71 66 68 75 95 99 92 92 95 95 97 98 96 93 86 97 67 93 94 98 86 86 76 73 72 62 60 50 43 42
66 67 70 71 74 72 69 68 70 72 75 70 71 72 68 69 73 75 97 95 95 96 90 88 88 64 57 63 60 92 82 81 87 80 99 98 97 97 98 91 80 66 76 97 94 79 74 81 66 64 54 56 44 44
69 67 64 66 70 72 71 72 74 74 72 69 67 71 70 70 72 70 95 95 96 100 99 89 57 75 64 64 69 69 71 76 82 98 98 98 97 92 98 85 87 70 61 66 74 60 58 56 60 57 57 54 50 47
75 76 72 70 69 69 68 69 70 68 67 66 70 68 68 71 71 79 92 95 87 94 98 95 67 51 48 54 62 78 81 85 94 99 99 97 92 93 95 89 87 66 71 89 87 62 66 55 52 57 54 53 50 48
66 66 72 78 76 73 69 68 67 66 65 68 68 72 74 66 66 92 97 92 85 96 99 99 84 81 67 72 74 75 75 89 100 99 99 99 91 94 98 97 55 46 48 56 72 54 53 59 60 53 57 58 58 53
60 62 63 65 70 75 78 76 71 69 65 68 70 73 70 68 89 96 93 94 92 92 100 98 94 79 81 87 95 98 94 100 96 99 99 99 92 93 98 91 54 50 46 46 48 57 62 59 67 63 62 57 58 55
59 60 59 61 62 65 66 74 76 71 67 68 69 70 72 72 76 96 81 72 88 100 100 97 95 93 82 98 97 96 98 100 100 99 97 99 95 97 98 72 64 62 69 66 62 63 65 65 66 66 64 66 68 67
62 58 60 64 61 61 62 64 66 72 72 67 68 71 88 93 94 88 70 70 93 94 99 94 96 95 88 99 99 99 99 99 97 97 99 95 96 96 76 82 80 93 94 82 70 73 72 77 78 76 74 73 76 74
62 58 59 58 60 65 66 61 63 69 74 68 80 96 99 98 77 75 95 99 100 99 99 97 93 94 94 97 98 98 100 98 98 93 97 98 93 77 88 95 85 75 74 76 88 89 87 87 83 80 78 75 77 76
62 57 58 57 57 58 64 62 61 66 73 95 95 100 86 71 89 95 97 99 96 97 96 86 80 80 80 87 92 94 93 97 98 89 95 98 98 99 100 98 96 95 72 71 76 80 74 72 73 74 75 79 80 81
68 56 55 55 58 57 56 61 62 79 95 95 94 92 88 82 95 94 96 90 97 89 94 98 94 88 90 91 93 95 93 98 93 93 98 97 97 82 77 79 74 70 73 75 70 72 76 74 76 77 85 88 81 82
70 57 56 57 60 61 70 60 59 63 71 88 94 96 96 87 97 94 98 93 95 83 92 94 98 98 99 99 99 99 98 94 86 97 92 97 93 82 80 77 73 68 74 78 72 76 81 86 83 91 95 90 88 83
68 61 57 58 62 64 86 76 62 68 90 98 97 97 91 94 90 81 88 88 80 84 93 98 100 99 99 99 98 98 86 92 94 96 93 98 93 85 81 84 83 85 86 87 86 82 91 93 87 83 91 92 95 94
61 66 59 57 58 61 63 67 70 83 95 96 96 96 90 80 85 91 84 82 78 90 95 95 96 96 93 88 88 85 91 94 89 92 98 99 87 87 92 91 95 95 94 94 91 95 95 94 93 88 88 90 92 87
57 74 67 55 69 62 58 73 91 95 97 97 96 94 88 91 92 95 97 95 88 91 97 97 92 93 87 83 85 88 82 85 93 95 99 92 85 96 91 85 90 89 91 93 89 93 96 94 96 94 93 93 89 94
61 98 54 70 68 60 56 94 98 99 95 92 97 94 91 92 94 93 95 92 87 96 97 96 97 85 90 93 85 94 98 98 96 96 93 84 94 97 86 86 85 77 89 89 88 92 96 86 93 88 93 90 90 94
88 79 57 74 71 67 85 91 96 96 96 93 98 91 95 94 94 95 93 90 95 96 98 90 96 96 93 82 98 98 97 97 94 93 94 92 95 89 84 90 90 90 93 90 87 96 98 98 95 94 92 94 92 93
98 94 70 79 76 87 95 90 93 96 85 92 94 89 86 89 89 76 81 86 88 88 99 98 95 97 94 96 99 99 98 94 95 93 95 95 90 90 91 90 90 94 96 94 94 97 99 97 98 97 92 94 97 97
94 98 71 55 65 94 94 91 88 93 87 78 71 72 80 86 81 93 86 84 84 86 98 97 96 94 97 98 98 97 98 96 94 97 97 96 98 89 89 96 96 95 98 96 94 94 98 98 98 95 94 96 98 97
97 73 58 64 87 94 96 94 93 85 82 78 70 78 88 96 95 96 88 88 94 84 95 96 98 98 97 97 97 92 91 86 94 95 96 99 96 98 97 94 96 94 96 99 98 96 95 99 99 97 98 97 97 98
87 56 81 68 95 94 97 88 87 88 86 83 82 78 93 93 94 92 91 94 96 95 95 97 98 96 95 91 96 93 90 81 81 97 89 94 98 99 98 97 96 98 98 99 96 97 96 94 95 97 98 97 96 97
70 76 92 85 95 91 85 84 87 72 80 75 73 70 86 96 91 94 96 98 98 98 98 96 96 94 94 94 89 84 87 89 98 95 97 98 98 98 98 97 95 98 98 94 92 94 96 94 94 96 96 97 97 97
67 90 97 97 88 96 79 91 88 75 78 75 82 74 75 82 90 99 98 99 98 97 96 94 93 97 97 95 98 97 95 98 94 97 98 97 98 98 95 94 92 91 93 93 90 94 93 95 95 94 94 97 97 98
97 96 97 98 91 98 91 85 70 57 79 84 87 94 95 99 99 99 98 98 99 96 96 96 97 96 97 99 96 95 95 97 96 99 99 98 98 97 97 96 98 98 89 95 95 96 94 94 94 94 94 95 96 97
96 85 95 90 94 87 83 92 92 80 64 84 83 87 99 100 100 97 98 99 99 98 97 94 98 99 98 91 91 96 95 97 94 99 99 98 98 99 100 100 100 97 94 100 97 96 95 93 94 93 94 93 94 96
98 93 81 66 60 62 84 82 70 79 86 95 92 100 97 95 94 96 97 98 99 99 98 99 96 93 95 95 94 97 98 96 94 96 96 97 97 98 98 100 100 98 96 96 98 98 97 96 94 93 94 92 93 95
87 80 79 75 79 58 76 75 88 90 92 94 97 96 97 92 93 97 99 97 98 91 91 89 86 87 92 96 97 97 96 97 97 95 93 93 96 99 99 98 98 100 97 97 99 97 96 96 96 95 95 96 94 92
86 84 81 80 85 88 88 86 83 87 93 98 94 100 98 97 98 100 97 96 96 89 91 94 99 95 95 94 95 96 97 98 92 99 100 100 100 98 99 100 99 98 97 98 98 95 95 92 92 94 95 96 95 96
92 79 77 92 85 80 83 95 98 97 92 93 89 93 96 98 98 99 95 93 93 94 93 92 95 94 97 96 100 98 99 100 100 96 100 100 100 99 100 100 100 98 98 99 98 96 98 96 95 94 92 92 93 96
80 80 91 89 93 98 97 98 97 96 98 100 100 98 100 99 98 98 97 98 97 95 96 98 98 98 96 98 100 100 100 100 100 100 100 100 100 100 100 100 100 100 100 100 99 100 100 100 98 97 96 95 94 95
95 89 91 99 100 98 97 98 100 100 100 100 100 100 99 99 100 98 98 97 94 94 95 93 96 100 99 100 100 100 99 100 100 100 100 100 100 100 100 100 100 100 100 100 100 100 100 100 100 100 99 98 95 95
98 97 96 96 97 98 98 98 100 100 100 100 100 100 98 96 98 96 97 96 92 90 93 95 94 94 94 95 96 100 100 100 100 100 100 100 100 100 100 100 100 100 100 100 100 100 100 100 100 100 100 100 97 95

GFSWCAN_sfc_rhum_249.txt.gz
RH
62 63 62 61 66 71 70 71 75 77 76 75 72 73 74 73 71 90 89 90 98 99 81 73 70 83 89 97 95 89 91 92 98 98 98 97 98 95 93 68 68 82 88 97 96 98 94 72 76 93 92 69 66 54
66 63 63 67 70 72 71 70 71 73 72 72 73 72 72 73 77 76 96 84 90 100 95 82 78 74 78 71 91 97 92 95 97 98 97 98 98 93 83 97 72 93 90 96 96 91 68 64 60 61 67 77 71 58
64 60 64 65 67 68 70 69 69 69 70 71 74 69 72 69 69 74 90 94 96 100 91 91 91 71 64 64 60 93 84 76 87 87 99 98 98 96 99 95 85 71 95 97 91 63 70 70 50 57 69 63 60 58
73 74 70 66 66 69 70 70 69 71 70 71 70 66 67 70 69 72 94 96 97 99 98 88 61 80 68 70 73 71 70 79 84 93 98 98 98 86 96 85 88 68 64 68 71 56 64 69 61 60 52 53 55 54
66 69 72 74 71 68 68 68 70 69 65 60 63 69 70 68 68 84 88 88 88 98 98 91 67 54 51 57 68 84 84 88 96 99 99 97 94 91 97 94 84 65 64 79 75 59 75 63 50 54 60 62 63 61
60 64 67 67 72 76 74 73 69 68 66 65 65 66 68 73 78 92 95 94 89 92 99 100 81 84 77 72 74 74 83 95 96 99 98 98 88 95 98 95 64 53 56 56 62 51 60 54 64 59 61 64 65 64
61 60 61 60 64 65 68 72 77 74 71 65 66 69 71 76 93 95 90 90 91 98 99 97 97 76 78 88 94 99 89 96 97 97 99 97 96 99 99 91 54 54 51 52 51 54 64 64 70 70 71 70 69 67
62 62 60 58 63 62 62 66 66 72 74 70 66 69 70 73 78 96 83 87 94 99 100 93 94 90 80 96 97 94 99 99 99 97 99 99 94 99 97 76 69 67 83 74 72 71 77 74 73 75 74 74 77 77
68 66 60 59 61 62 63 64 62 64 68 76 66 68 87 94 98 87 68 75 93 91 99 96 93 95 84 99 98 98 99 99 98 99 96 95 98 96 79 88 84 84 90 90 84 94 89 82 81 80 79 81 85 84
66 69 62 59 59 58 59 67 64 61 66 72 84 98 98 94 76 73 96 100 100 99 99 93 93 97 91 94 94 99 98 100 99 93 96 98 94 77 81 96 93 92 96 78 88 87 86 85 83 81 74 69 84 84
62 75 62 58 58 57 58 58 64 62 70 95 92 96 88 71 90 99 99 99 97 97 96 92 81 79 76 93 91 89 92 97 99 91 95 97 94 99 97 98 97 97 84 78 80 80 72 77 74 76 76 78 89 79
61 73 65 57 56 58 61 57 56 77 93 97 98 97 92 91 98 97 95 89 96 86 94 99 97 90 95 90 93 95 88 97 98 95 98 98 96 96 88 83 80 76 76 75 67 69 82 78 85 86 91 89 84 84
62 63 69 59 57 58 63 74 82 68 66 87 97 98 99 91 97 92 96 93 98 92 93 97 99 98 98 98 98 98 98 95 90 100 96 92 96 88 86 84 79 70 78 77 76 75 74 83 86 81 88 85 84 82
60 59 68 64 59 59 59 67 95 76 93 98 94 99 95 96 89 72 76 85 84 88 94 97 98 99 99 100 98 98 87 90 97 98 86 98 94 89 89 89 87 86 83 84 83 86 90 89 90 86 90 90 91 91
60 56 58 68 62 57 66 66 64 82 99 97 95 96 95 79 84 88 85 81 80 93 97 97 96 97 97 98 92 87 95 97 90 89 95 98 90 91 94 92 96 96 94 93 91 93 93 94 94 95 86 90 93 92
56 57 66 66 69 61 63 72 88 97 99 97 95 93 91 95 94 93 96 96 82 89 98 97 93 94 92 85 80 90 85 90 89 98 98 94 90 96 92 88 86 85 81 86 86 86 90 96 96 96 92 93 86 87
57 88 77 66 62 63 66 83 98 99 96 92 100 95 90 88 91 92 92 90 87 95 95 98 99 82 90 95 87 94 94 94 98 95 99 90 93 96 90 85 87 87 90 93 91 85 88 96 94 95 91 87 90 88
74 88 75 85 72 66 85 88 95 92 93 96 100 94 93 92 91 90 90 90 95 96 97 87 97 90 92 85 94 97 99 99 97 95 96 91 95 87 79 86 88 93 94 95 95 92 94 98 97 92 95 93 93 89
73 87 84 81 82 88 89 84 94 97 88 91 96 90 84 82 88 73 80 83 89 87 93 97 94 95 91 96 96 98 99 98 98 95 95 95 89 88 92 89 91 95 96 96 98 98 96 98 98 97 96 96 96 94
56 59 69 97 98 94 89 87 87 96 90 83 87 79 75 84 77 90 82 88 93 97 96 94 92 94 95 94 96 96 96 95 95 97 98 97 98 95 93 97 99 98 96 95 94 95 94 97 98 93 95 97 98 96
60 82 94 99 98 94 88 87 92 88 83 87 78 76 88 93 91 86 80 76 96 96 94 91 90 89 95 97 93 92 92 92 95 94 94 98 97 98 98 97 96 94 97 99 98 97 97 96 94 93 96 97 97 97
92 82 95 94 97 93 98 86 84 86 85 79 64 69 90 91 89 90 88 92 96 83 88 82 90 96 96 93 94 90 91 84 85 97 93 93 97 99 99 99 96 98 98 100 97 97 96 94 94 94 96 96 94 96
80 96 96 87 97 97 86 85 94 72 82 77 70 67 86 94 90 93 95 94 94 96 97 96 96 94 91 94 90 86 90 90 99 98 97 98 98 98 99 97 95 99 98 97 93 93 96 93 93 96 94 94 95 95
83 97 96 95 88 97 76 98 88 77 72 77 78 74 70 83 76 93 77 71 77 98 97 95 93 96 96 96 98 97 97 97 97 98 98 97 98 98 97 97 92 92 95 95 92 96 95 96 96 94 94 95 94 95
98 97 96 96 92 100 97 87 78 55 71 62 67 79 85 98 95 98 99 92 100 100 99 97 95 94 97 99 99 97 96 96 96 97 98 98 97 96 96 96 98 98 96 99 99 98 97 96 95 94 94 94 95 94
96 93 96 91 98 96 92 100 98 83 87 88 88 83 98 98 99 93 96 99 100 99 99 97 96 100 100 98 97 98 96 98 95 97 98 97 97 97 100 100 100 96 97 100 100 100 98 96 96 96 94 92 93 95
96 96 87 66 63 64 91 86 70 87 87 83 91 94 96 85 90 90 98 98 99 98 97 95 95 96 98 100 97 97 96 95 94 95 95 97 98 98 97 100 100 98 98 99 100 100 99 98 98 96 96 93 93 95
91 82 83 88 90 72 88 90 89 90 89 81 98 98 96 89 89 95 98 98 98 97 96 96 96 96 96 95 94 94 96 98 95 94 94 95 98 100 100 100 99 100 100 100 100 100 100 100 100 98 98 98 95 92
98 92 84 89 92 88 87 92 90 83 86 80 80 79 96 98 98 99 98 98 98 94 96 98 98 95 95 93 95 96 97 97 95 99 100 100 100 97 100 100 100 100 100 100 100 100 99 99 96 97 97 96 94 94
90 83 86 93 86 88 81 89 94 96 99 97 93 94 95 97 98 100 97 96 96 97 98 97 96 94 94 92 97 97 99 100 98 95 97 99 98 100 100 100 100 100 100 100 100 98 100 99 100 99 95 95 94 94
81 90 96 92 85 77 85 97 99 98 98 97 98 98 99 99 98 100 97 98 98 98 96 100 99 96 94 95 97 98 99 100 100 100 100 100 100 100 100 100 100 100 100 100 100 100 100 100 100 100 98 98 96 96
81 69 69 73 79 97 98 98 98 98 96 98 100 100 100 100 100 98 99 98 98 99 99 94 96 97 98 98 98 99 95 98 100 100 100 100 100 100 100 100 100 100 100 100 100 100 100 100 100 100 100 100 99 98
98 97 97 96 98 98 97 97 98 96 97 100 100 100 99 94 90 93 97 98 95 91 93 96 98 97 96 96 96 98 96 99 100 100 100 100 100 100 100 100 100 100 100 100 100 100 100 100 100 100 100 100 100 99